Погода в Первомайском

Россия / Томская область     57°04′23″N   86°14′05″E
темп.,
°C
ветер,
м/с
пор.,
м/с
влажн.,
%
обл.,
%
осадки,
мм/ч
давл.,
гПа
погр.,
м
25 января, пн
пн2501:00−43з229646 0.0 104418
04:00−42зюз229560 0.0 104419
07:00−42зюз239579 0.0 104649
10:00−42юз2396100 0.0 104649
13:00−39юз3593100 0.0 1047332
16:00−36юз3592100 0.0 1045434
19:00−37юз2297100 0.1 104639
22:00−38юз1198100 0.1 104418
26 января, вт
вт2601:00−40зюз0199100 0.1 104418
04:00−41в1110099 0.0 104418
07:00−42вюв1110085 0.0 104418
10:00−42в119937 0.0 104418
13:00−37юв229137 0.0 1043208
16:00−35вюв239348 0.0 1043187
19:00−37юв339366 0.0 104344
22:00−36юв359498 0.0 1041105
27 января, ср
ср2701:00−32юв469699 0.0 1037181
04:00−28юв5898100 0.2 1033244
07:00−21ююв51098100 0.9 1028502
10:00−15ю61295100 0.9 1023717
13:00−11юз71294100 2.3 1019760
16:00−8зюз61292100 0.8 1017734
19:00−6зюз61294100 1.7 1017651
22:00−4зюз71491100 0.3 1018642
28 января, чт
чт2801:00−8сз61093100 1.2 1021621
04:00−17сз4893100 0.1 1025308
07:00−22сз339599 0.1 102757
10:00−22сз1293100 0.0 102894
13:00−20вюв1197100 0.4 1027137
16:00−15юв2396100 1.0 1022136
19:00−8ююз31297100 2.9 1019550
22:00−6зюз71394100 0.8 1016895
29 января, пт
пт2901:00−6зюз71394100 2.3 1015814
04:00−7зюз61194100 1.4 1014607
07:00−6юз2497100 3.8 1014174
10:00−9ссз2396100 1.4 101579
13:00−8з149499 1.6 1016210
16:00−5зюз5992100 0.3 1015703
19:00−5зюз61391100 0.4 1015637
22:00−5з8149494 0.3 1015824